Location: Zagreb
(45.8000°N, 16.0000°E)
Time: 16:44:57
(UTC+01:00)

Tiros 1 despin weight - Pass Details

Date: 03 February 2020
Orbit: 594 x 642 km, 48.2° (Epoch: 25 February)

Event Time Altitude Azimuth Distance (km) Brightness Sun altitude
Rises 06:23:47 0° 189° (S) 2,816 ? -9.5°
Reaches altitude 10° 06:27:11 10° 162° (SSE) 1,924 ? -8.9°
Maximum altitude 06:29:12 13° 134° (SE) 1,740 ? -8.6°
Drops below altitude 10° 06:31:14 10° 107° (ESE) 1,938 ? -8.2°
Sets 06:34:40 0° 80° (E) 2,856 ? -7.7°
